FW1466 Weather Reports


Display with metric or nautical units.
time (UTC)temp
F
wind
direction
speed
MPH
gust
MPH
rain 1hr
in
rain 24hr
in
rain mn
in
humidity
%
barometer
mb
20260904031600 81 140 0.0 0.0 0.00 0.00 0.00 89 1012.8
20260904030057 81 140 0.0 0.0 0.00 0.00 0.00 89 1012.9
20260904024557 81 140 0.0 0.0 0.00 0.00 0.00 89 1012.7
20260904023056 81 140 0.0 0.0 0.00 0.00 0.00 89 1012.8
20260904021556 82 140 0.0 0.0 0.00 0.00 0.00 88 1012.6
20260904020055 82 140 0.0 0.0 0.00 0.00 0.00 87 1012.5
20260904014605 83 140 0.0 0.0 0.00 0.00 0.00 86 1012.4
20260904013054 83 140 0.0 0.0 0.00 0.00 0.00 84 1012.1
20260904011554 84 140 0.0 0.0 0.00 0.00 0.00 82 1011.8
20260904010107 85 140 0.0 1.0 0.00 0.00 0.00 81 1011.5
20260904004554 86 140 0.0 2.0 0.00 0.00 0.00 80 1011.0
20260904003051 86 140 0.0 2.0 0.00 0.00 0.00 78 1010.8
20260904001551 87 142 0.0 3.0 0.00 0.00 0.00 77 1010.8
20260904000055 88 150 0.0 3.0 0.00 0.00 0.00 76 1011.1
20260903234548 88 177 2.0 4.0 0.00 0.00 0.00 75 1011.1
20260903233049 89 144 2.0 6.0 0.00 0.00 0.00 73 1011.3
20260903231547 89 189 0.0 6.0 0.00 0.00 0.00 71 1011.4
20260903230045 89 134 0.0 4.0 0.00 0.00 0.00 71 1011.6
20260903224545 90 138 0.0 3.0 0.00 0.00 0.00 71 1011.6
20260903223044 90 156 0.0 3.0 0.00 0.00 0.00 69 1011.7
20260903221543 90 180 0.0 3.0 0.00 0.00 0.00 69 1011.8
20260903220049 90 167 0.0 2.0 0.00 0.00 0.00 68 1011.9
20260903214540 91 172 1.0 6.0 0.00 0.00 0.00 66 1011.9
20260903213040 92 187 0.0 4.0 0.00 0.00 0.00 66 1011.7
20260903211540 93 130 1.0 8.0 0.00 0.00 0.00 65 1011.8
20260903210040 93 148 1.0 5.0 0.00 0.00 0.00 64 1011.9
20260903204532 91 175 1.0 5.0 0.00 0.00 0.00 66 1012.1
20260903203035 91 164 4.0 8.0 0.00 0.00 0.00 66 1012.3
20260903201526 91 140 1.0 7.0 0.00 0.00 0.00 67 1012.4
20260903200025 91 159 3.0 8.0 0.00 0.00 0.00 66 1012.6
20260903194523 91 145 2.0 8.0 0.00 0.00 0.00 66 1012.7
20260903193022 90 130 2.0 6.0 0.00 0.00 0.00 66 1012.7
20260903191519 89 143 2.0 7.0 0.00 0.00 0.00 68 1012.9
20260903190018 89 124 0.0 5.0 0.00 0.00 0.00 70 1013.0
20260903184520 89 55 1.0 5.0 0.00 0.00 0.00 69 1013.3
20260903183016 88 133 1.0 6.0 0.00 0.00 0.00 71 1013.5
20260903181515 87 336 2.0 4.0 0.00 0.00 0.00 70 1013.7
20260903180015 87 325 2.0 6.0 0.00 0.00 0.00 71 1013.8
20260903174520 86 348 2.0 4.0 0.00 0.00 0.00 74 1013.8
20260903173013 86 63 1.0 4.0 0.00 0.00 0.00 73 1014.0
20260903171512 86 20 2.0 4.0 0.00 0.00 0.00 73 1013.9
20260903170012 86 349 4.0 11.0 0.00 0.00 0.00 73 1014.0
20260903164510 87 328 3.0 8.0 0.00 0.00 0.00 73 1013.9
20260903163009 86 336 3.0 10.0 0.00 0.00 0.00 75 1014.0
20260903161507 86 28 3.0 13.0 0.00 0.00 0.00 76 1014.0
20260903160014 87 336 2.0 7.0 0.00 0.00 0.00 75 1013.9
20260903154504 90 263 0.0 4.0 0.00 0.00 0.00 73 1013.4
20260903153101 89 301 1.0 3.0 0.00 0.00 0.00 73 1013.1
20260903151558 88 302 0.0 2.0 0.00 0.00 0.00 76 1013.0
20260903150104 86 280 0.0 3.0 0.00 0.00 0.00 77 1013.0
20260903144555 85 328 1.0 2.0 0.00 0.00 0.00 78 1012.9
20260903143046 85 273 0.0 4.0 0.00 0.00 0.00 77 1012.9
20260903141539 84 221 0.0 4.0 0.00 0.00 0.00 79 1013.0
20260903140035 84 137 0.0 2.0 0.00 0.00 0.00 80 1012.9
20260903134530 83 121 0.0 2.0 0.00 0.00 0.00 83 1012.8
20260903133025 81 157 0.0 5.0 0.00 0.00 0.00 86 1012.9
20260903131521 79 221 0.0 1.0 0.00 0.00 0.00 89 1013.0
20260903130016 77 223 0.0 1.0 0.00 0.00 0.00 92 1013.1
20260903124514 75 224 0.0 2.0 0.00 0.00 0.00 94 1013.4
20260903123011 75 225 0.0 0.0 0.00 0.00 0.00 96 1013.2
20260903121507 74 224 0.0 0.0 0.00 0.00 0.00 96 1013.5
20260903120004 74 225 0.0 0.0 0.00 0.00 0.00 96 1013.3
20260903114502 74 225 0.0 0.0 0.00 0.00 0.00 96 1013.1
20260903113059 74 224 0.0 0.0 0.00 0.00 0.00 95 1013.1
20260903111559 74 225 0.0 0.0 0.00 0.00 0.00 95 1013.1
20260903110058 74 224 0.0 0.0 0.00 0.00 0.00 95 1013.1
20260903104559 74 225 0.0 0.0 0.00 0.00 0.00 95 1013.0
20260903103056 74 225 0.0 0.0 0.00 0.00 0.00 96 1013.0
20260903101556 74 225 0.0 0.0 0.00 0.00 0.00 96 1012.9
20260903100054 74 225 0.0 0.0 0.00 0.00 0.00 96 1013.0
20260903094601 74 225 0.0 0.0 0.00 0.00 0.00 97 1013.1
20260903093117 75 225 0.0 1.0 0.00 0.00 0.00 97 1013.0
20260903091552 75 225 0.0 0.0 0.00 0.00 0.00 97 1012.8
20260903090050 75 224 0.0 0.0 0.00 0.00 0.00 97 1012.7
20260903084549 75 225 0.0 0.0 0.00 0.00 0.00 97 1012.7
20260903083048 75 224 0.0 0.0 0.00 0.00 0.00 97 1012.7
20260903081548 75 224 0.0 0.0 0.00 0.00 0.00 97 1012.8
20260903080051 75 225 0.0 0.0 0.00 0.00 0.00 97 1012.7
20260903074600 75 225 0.0 0.0 0.00 0.00 0.00 97 1012.7
20260903073050 75 224 0.0 0.0 0.00 0.00 0.00 97 1012.7
20260903071543 75 225 0.0 0.0 0.00 0.00 0.00 96 1012.7
20260903070041 76 225 0.0 0.0 0.00 0.00 0.00 96 1012.7
20260903064543 76 225 0.0 0.0 0.00 0.00 0.00 96 1012.8
20260903063041 76 225 0.0 0.0 0.00 0.00 0.00 96 1012.8
20260903061544 76 225 0.0 0.0 0.00 0.00 0.00 95 1012.8
20260903060037 76 225 0.0 0.0 0.00 0.00 0.00 95 1012.9
20260903054539 77 225 0.0 0.0 0.00 0.00 0.00 94 1012.9
20260903053034 77 225 0.0 0.0 0.00 0.00 0.00 94 1013.0
20260903051531 77 225 0.0 0.0 0.00 0.00 0.00 93 1012.8
20260903050032 78 225 0.0 0.0 0.00 0.00 0.00 92 1012.7
20260903044528 78 224 0.0 0.0 0.00 0.00 0.00 92 1012.6
20260903043027 79 225 0.0 0.0 0.00 0.00 0.00 90 1012.5
20260903041536 79 225 0.0 0.0 0.00 0.00 0.00 89 1012.6
20260903040026 80 224 0.0 0.0 0.00 0.00 0.00 88 1012.6
20260903034531 80 224 0.0 1.0 0.00 0.00 0.00 87 1012.6
20260903033038 81 225 0.0 0.0 0.00 0.00 0.00 87 1012.5